Location: Dillon
(41.1766°N, 107.0923°W)
Time: 16:54:06
(UTC+00:00)

FALCONSAT 3 - Pass Details

Date: 05 July 2022
Orbit: 394 x 399 km, 35.4° (Epoch: 09 August)

Event Time Altitude Azimuth Distance (km) Brightness Sun altitude
Rises 04:39:00 0° 260° (W) 2,334 ? -16.7°
Reaches altitude 10° 04:41:18 10° 248° (WSW) 1,470 ? -17.0°
Enters shadow 04:43:26 24° 212° (SSW) 884 ? -17.2°
